www.pogodaiklimat.ru

Погода и климат >> Архив погоды >> Россия >> Архангельская область >> Кепино


ПОГОДА в Кепино

  • Прогноз погоды в Кепино
  • Монитор погоды в Кепино

АРХИВ ПОГОДЫ в Кепино

Время (UTC), дата Ветер
(напр.,м/с)
 
Видим.   Явления Облачность Т
(С)
Тd
(С)
f
(%)
Тe
(С)
Тes
(С)
Комфортность P
(гПа)
Po
(гПа)
Тmin
(С)
Tmax
(С)
R
(мм)
R24
(мм)
S
(см)
03 10.09 штиль 0 20 км 6/0
[Ac cast]
+1.2 +0.8 97 -0 -0 1028.9 1020.0 +0.7
06 10.09 ЮЗ 1 20 км ясно +13.0 +8.9 76 +13 +16 1028.3 1019.8
09 10.09 ЮЗ 1 20 км 1/1 600 м
[Cu hum]
+19.1 +8.4 50 +21 +26 комфорт 1027.8 1019.4
12 10.09 ЮЗ 1 20 км 4/4 600 м
[Cu hum]
+19.0 +7.3 47 +21 +23 комфорт 1027.1 1018.7
15 10.09 ЮЗ 1 20 км 10/0
[Ac lent]
+16.3 +9.7 65 +17 +17 1026.2 1017.8 +20.2
18 10.09 штиль 0 10 км 6/0
[Ac As]
+12.1 +9.8 86 +12 +12 1025.1 1016.6
21 10.09 штиль 0 10 км слаб. ливневой дождь 10/10 600 м
[Cb cap]
+10.8 +9.7 93 +10 +10 1023.9 1015.3
03 11.09 ЮЗ 1 500 м туман ?/? +6.8 +6.4 97 +6 +6 1023.8 1015.1 +5.4 1
06 11.09 Ю 1 4000 м дымка {туман} 10/10 300 м
[St]
+11.6 +11.1 97 +11 +11 1023.8 1015.3
09 11.09 ЮВ 1 20 км 4/0
[Ac As]
+16.9 +11.9 72 +18 +22 1022.8 1014.4
12 11.09 Ю 2 20 км 4/4 600 м
[Sc diur, vesp]
+18.3 +12.9 71 +19 +21 1021.7 1013.4
15 11.09 Ю 1 20 км 8/0
[Ci]
+16.9 +13.9 82 +18 +18 1020.9 1012.6 +18.9
18 11.09 штиль 0 10 км 8/0
[Ac lent Ci fib]
+15.2 +14.4 95 +15 +15 1019.9 1011.5
21 11.09 Ю 1 10 км 8/0
[Ac lent Ci fib]
+14.6 +13.5 93 +15 +15 1018.5 1010.1
00 12.09 Ю 1 4000 м дымка 8/0
[Ac As]
+14.4 +12.9 91 +15 +15 1017.0 1008.6
03 12.09 Ю 1 4000 м дымка 1/0
[Ac trans]
+13.0 +12.0 94 +13 +13 1015.5 1007.1 +13.0
06 12.09 Ю 1 4000 м дымка 10/0
[Ci sp]
+15.3 +12.9 86 +16 +18 1014.3 1006.0 +12.9
09 12.09 ЮЗ 3 20 км 9/3 600 м
[Cu med, cong Ci sp]
+20.1 +10.8 55 +22 +24 комфорт 1012.8 1004.6
12 12.09 ЮЗ 2 10 км 10/9 600 м
[Cb cap Ac trans]
+17.7 +11.5 67 +18 +18 1012.4 1004.1
15 12.09 Ю 1 10 км в посл. час ливневой дождь 9/1 600 м
[Sc Ac As]
+14.4 +13.4 94 +15 +15 1011.5 1003.2 +20.3 4
18 12.09 ЮЗ 1 10 км {ливн. осадки} 6/0
[Ac trans]
+13.2 +12.4 95 +13 +13 1010.6 1002.2
21 12.09 ЮЗ 1 10 км 10/0
[Ac und]
+12.7 +11.7 94 +13 +13 1008.9 1000.5
00 13.09 Ю 1 10 км 9/0
[Ac As]
+11.6 +10.2 91 +11 +11 1006.8 998.5
03 13.09 Ю 1 10 км 10/8 600 м
[Sc Ac As]
+10.9 +9.4 90 +11 +11 1004.6 996.2 +10.8 2
06 13.09 Ю 1 10 км 10/10 600 м
[Sc]
+12.8 +10.0 83 +13 +13 1003.0 994.7
09 13.09 ЮЗ 2 10 км 10/10 600 м
[Sc]
+13.6 +10.9 84 +13 +13 1002.7 994.4
12 13.09 З 2 10 км {ливн. осадки} 9/6 600 м
[Sc diur, vesp Ac As Ci sp]
+14.6 +9.8 73 +14 +15 1003.3 995.0
15 13.09 Ю 1 10 км 9/8 600 м
[Sc diur, vesp Ac cuf]
+13.5 +10.2 80 +14 +14 1003.2 994.9 +14.8 0.0
18 13.09 штиль 0 10 км {ливн. осадки} 8/3 600 м
[Sc Ac lent Ci fib]
+9.6 +8.8 95 +9 +9 1002.4 994.0
21 13.09 ЮВ 1 10 км слаб. ливневой дождь 10/10 600 м
[Cb cap]
+10.3 +9.3 94 +10 +10 1001.1 992.8
00 14.09 ЮВ 1 10 км {ливн. осадки} 9/5 600 м
[Sc Ac trans]
+10.5 +9.9 96 +10 +10 1000.0 991.6
03 14.09 штиль 0 4000 м дымка 10/10 600 м
[Sc]
+9.9 +9.3 96 +9 +9 999.6 991.3 +9.1 2
06 14.09 штиль 0 10 км 10/10 600 м
[Sc]
+10.9 +10.0 94 +10 +10 998.8 990.5
09 14.09 штиль 0 10 км слаб. ливневой дождь 10/10 600 м
[Cb cap]
+12.0 +10.5 91 +11 +11 997.7 989.4
12 14.09 СВ 1 10 км слаб. ливневой дождь 10/10 300 м
[Cb cap]
+11.1 +10.3 95 +11 +11 996.5 988.2
15 14.09 штиль 0 10 км в посл. час ливневой дождь 10/10 600 м
[Sc]
+10.9 +10.3 96 +10 +10 995.2 986.9 +12.4 10
18 14.09 СЗ 2 10 км слаб. ливневой дождь 10/10 300 м
[Cb cap]
+10.0 +9.4 96 +8 +8 993.3 985.0
21 14.09 С 1 4000 м ливневой дождь 10/10 300 м
[Cb cap]
+10.3 +9.8 97 +10 +10 991.5 983.2
00 15.09 З 2 10 км слаб. ливневой дождь 10/10 300 м
[Cb cap]
+9.1 +8.5 96 +7 +7 990.1 981.8
03 15.09 СЗ 3 10 км слаб. ливневой дождь 10/10 300 м
[Cb cap]
+10.0 +9.4 96 +8 +8 988.4 980.1 +8.9 14
06 15.09 СЗ 3
{10}
10 км слаб. ливневой дождь 10/10 300 м
[Cb cap]
+9.4 +8.5 94 +7 +7 987.8 979.5
09 15.09 З 3
{10}
10 км слаб. ливневой дождь 10/10 300 м
[Cb cap]
+9.1 +8.3 95 +6 +6 988.0 979.6
12 15.09 З 3 10 км слаб. ливневой дождь 10/10 300 м
[Cb cap]
+9.1 +8.3 95 +6 +6 988.5 980.2
15 15.09 З 4 10 км слаб. дождь 10/10 300 м
[Frnb Ns]
+8.4 +7.6 95 +5 +5 988.4 980.1 +10.0 16
18 15.09 З 3 10 км слаб. дождь 10/10 300 м
[Frnb Ns]
+7.1 +6.4 95 +4 +4 987.8 979.4
21 15.09 З 3 10 км слаб. дождь 10/10 300 м
[Frnb Ns]
+6.8 +6.1 95 +4 +4 986.9 978.5
00 16.09 З 2 10 км слаб. дождь 10/10 300 м
[Frnb Ns]
+6.7 +6.1 96 +4 +4 986.2 977.9
03 16.09 З 1 2000 м морось {дождь} 10/10 300 м
[St]
+6.8 +6.2 96 +6 +6 985.4 977.0 +6.7 7
06 16.09 З 1 10 км в посл. час морось {дождь} 10/10 300 м
[St]
+7.4 +6.9 97 +6 +6 984.7 976.4
09 16.09 ЮЗ 2 10 км в посл. час морось 10/10 600 м
[Sc]
+9.2 +7.8 91 +7 +7 984.7 976.4
12 16.09 В 1 4000 м дымка {ливн. осадки} 10/10 300 м
[Cb cap]
+9.3 +8.3 93 +9 +9 985.2 976.9
15 16.09 С 1 10 км {ливн. осадки} 10/10 600 м
[Sc]
+8.3 +7.5 95 +7 +7 985.7 977.4 +9.7 4
18 16.09 штиль 0 10 км {ливн. осадки} 10/0
[Ac trans]
+5.2 +4.6 96 +4 +4 986.2 977.8
21 16.09 штиль 0 10 км 10/10 600 м
[Sc]
+5.8 +5.2 96 +5 +5 985.9 977.5
00 17.09 штиль 0 4000 м слаб. морось 10/10 300 м
[St]
+6.7 +6.2 97 +6 +6 986.1 977.7

 

Местоположение метеостанции Кепино (Архангельская область, Россия): широта 65.38 долгота 41.83 высота над уровнем моря 69 м.

В архиве по умолчанию представлена погода в Кепино за последнюю неделю. Архивные данные за месяц целиком и за предыдущие месяцы, начиная с января 2011 года, Вы можете получить, выбрав интересующий диапазон дат из раскрывающегося списка и нажав кнопку "Ввод!".


*Определитесь, кто Вы:
робот инопланетянин человек

Внимание! Время в таблицах - всемирное. Для получения местного времени необходимо прибавить поправку, которая равна 3 ч.

Смотрите также архив погоды в соседних городах и на ближайших метеорологических станциях:

Погода на Мудьюг Острове (Архангельская область, Россия) (93 км)
Погода в Зимнегорском Маяке (Архангельская область, Россия) (98 км)
Погода в Пинеге (Архангельская область, Россия) (104 км)
Погода в Архангельске (Архангельская область, Россия) (111 км)
Погода в Мезене (Архангельская область, Россия) (122 км)
Погода в Абрамовском маяке (Архангельская область, Россия) (129 км)
Погода в Холмогорах (Архангельская область, Россия) (129 км)
Погода в Северодвинске (Архангельская область, Россия) (131 км)
Погода на Сосновец Острове (Мурманская область, Россия) (133 км)
Погода в Пялице (Мурманская область, Россия) (138 км)

Пояснения к столбцам:

Ветер - указаны скорость ветра в м/с - средняя за 10 мин, порывы в срок и между сроками (в фигурных скобках) и направление, откуда дует ветер: С - северный, СВ - северо-восточный, В - восточный, ЮВ - юго-восточный, Ю - южный, ЮЗ - юго-западный, З - западный, СЗ - северо-западный.
Видимость - горизонтальная дальность видимости в метрах или километрах. При видимости от 1 до 10 км при отсутствии осадков обычно наблюдается дымка, при ухудшении видимости до 1 км и менее - туман. В сухую погоду видимость может ухудшаться дымом, пылью или мглою.
Явления - указаны атмосферные явления, наблюдавшиеся в срок или в последний час перед сроком; фигурными скобками обозначены явления, наблюдавшиеся между сроками (за 1-3 часа до срока); квадратными скобками обозначены град или гололедные отложения с указанием их диаметра в мм.
Облачность - указаны через наклонную черту общая и нижняя облачность в баллах и высота нижней границы облаков в метрах; квадратными скобками обозначены формы облаков: Ci - перистые, Cs - перисто-слоистые, Cc - перисто-кучевые, Ac - высококучевые, As - высокослоистые, Sc - слоисто-кучевые, Ns - слоисто-дождевые, Cu - кучевые, Cb - кучево-дождевые. Подробнее классификацию облаков см. в Атласе облаков (PDF).
T - Температура воздуха - температура, измеренная на высоте 2 м над землей.
Td - Температура точки росы - температура, при понижении до которой содержащийся в воздухе водяной пар достигнет насыщения.
f - Относительная влажность воздуха - влажноcть воздуха, измеренная на высоте 2 м над землей.
Te - Эффективная температура - температура, которую ощущает одетый по сезону человек в тени. Характеристика душности погоды. При расчете учитывается влияние влажности воздуха и скорости ветра на теплоощущения человека.
Tes - Эффективная температура на солнце - температура, которую ощущает человек, с поправкой на солнечный нагрев. Характеристика знойности погоды. Зависит от высоты солнца над горизонтом, облачности и скорости ветра. Ночью, в пасмурную погоду, а также при ветре 12 м/с и более поправка равна нулю.
P - Атмосферное давление - приведенное к уровню моря атмосферное давление.
Po - Атмосферное давление - измеренное на уровне метеостанции атмосферное давление.
Tmin - Минимальная температура - минимум температуры воздуха на высоте 2 м над землей.
Tmax - Максимальная температура - максимум температуры воздуха на высоте 2 м над землей.
R - Количество осадков - Количество выпавших осадков за период времени, мм. При наведении курсора мыши на число - период времени, за который выпало указанное количество осадков.
R24 - Количество осадков - Количество выпавших осадков за 24 часа, мм.
S - Снежный покров - Высота снежного покрова, см. При наведении курсора мыши на число - состояние снежного покрова и степень покрытия местности в баллах.